Wind_Speed
5 5 6 6 6 6 6 7 7 8 8 8 7 8 9 9 9 9 9 9 9 10 10 11 10 10 10 9 9 9 9 8 7 7 7 6 6 5 4 3 2 2 1 2
5 6 7 7 6 6 7 7 7 7 7 7 7 7 8 8 8 9 9 9 10 10 10 10 10 10 9 9 9 8 8 8 7 7 7 7 6 5 4 3 3 2 1 2
6 6 6 7 7 6 6 6 6 7 7 7 6 7 7 7 8 9 9 9 9 10 10 10 10 10 10 9 9 8 8 8 7 7 8 7 7 6 5 4 3 2 2 1
6 7 6 6 6 5 6 6 6 6 6 6 6 7 7 7 8 8 8 8 9 9 9 9 9 9 9 9 9 9 8 9 8 7 8 8 7 6 5 4 3 2 2 1
7 7 6 6 6 5 5 5 6 6 6 6 6 7 8 8 7 7 8 8 8 9 9 9 9 9 9 9 9 9 8 8 8 8 8 8 7 6 5 5 4 3 2 2
8 7 7 7 7 6 6 6 6 6 6 6 6 6 7 7 7 7 7 8 8 9 9 9 9 10 10 10 11 10 9 8 8 8 8 8 7 6 6 6 5 4 3 3
8 8 8 7 7 7 6 6 6 5 6 6 6 5 5 6 6 7 7 8 8 9 9 9 9 10 11 11 11 11 10 9 8 7 8 8 7 7 6 6 6 5 5 4
9 9 8 7 8 7 6 6 6 6 6 6 5 5 5 5 6 6 7 8 8 9 9 9 9 10 10 10 10 10 10 8 8 8 8 8 8 7 7 7 7 7 6 5
10 10 9 8 7 7 7 6 6 6 6 5 5 5 5 6 6 6 7 8 9 9 9 9 9 9 10 10 10 10 10 9 9 9 9 9 8 8 8 8 8 9 8 8
11 10 10 9 8 8 7 6 6 5 5 6 5 5 6 6 6 7 7 8 8 9 9 9 10 9 9 10 10 11 11 10 10 10 10 10 10 10 9 9 9 9 9 9
12 11 11 10 10 9 8 7 7 7 7 6 6 7 7 7 7 7 7 7 8 8 8 9 10 10 10 10 11 10 11 11 11 11 11 11 11 11 11 11 11 10 9 9
13 12 12 11 10 10 9 8 8 8 8 7 7 8 7 7 7 7 7 7 7 8 8 9 9 10 11 11 11 11 11 11 11 11 11 11 11 11 11 11 11 10 10 10
15 14 12 12 11 11 10 9 9 9 9 8 8 8 9 8 7 7 7 7 7 8 9 9 9 10 9 10 10 11 11 12 12 12 12 11 11 11 11 10 10 10 10 10
16 15 14 13 12 12 12 11 10 10 9 8 8 8 8 8 7 7 7 7 7 8 8 8 8 8 9 9 10 11 12 11 12 12 12 12 12 11 11 11 11 11 11 11
18 17 16 15 15 14 13 13 11 11 10 9 8 8 8 7 7 7 7 7 7 7 8 8 9 9 9 9 10 11 11 11 12 11 11 11 12 12 12 12 12 12 13 13
20 19 18 17 16 16 15 13 13 12 11 9 9 8 8 8 8 8 8 8 8 8 9 10 10 9 9 10 10 11 11 11 11 11 11 12 12 12 12 13 13 13 13 14
21 21 20 19 18 18 17 15 14 13 12 11 10 9 10 10 9 9 9 9 9 9 9 9 10 10 10 10 10 10 11 11 11 11 11 12 12 12 13 14 14 14 14 14
23 22 22 21 20 20 17 17 16 15 13 13 12 11 12 11 11 10 10 10 10 10 10 11 10 10 10 11 11 11 12 12 11 11 12 12 13 14 14 14 14 14 15 15
23 23 23 22 22 21 18 17 17 16 15 14 13 13 13 13 12 12 11 11 11 11 11 11 11 11 11 11 11 11 12 12 12 12 12 13 13 14 13 14 14 14 14 14
25 24 24 23 23 22 19 18 17 17 16 15 14 14 14 14 14 13 12 12 13 12 12 11 11 12 12 12 12 12 12 12 13 13 12 12 12 13 13 14 15 15 15 15
26 26 25 24 24 23 21 20 19 19 17 16 15 14 14 14 14 13 14 14 14 13 13 12 12 12 12 13 13 13 13 13 13 13 13 13 13 13 14 14 15 15 15 15
27 28 27 26 25 23 22 22 21 20 19 17 16 15 15 14 14 14 14 14 14 14 14 13 13 13 13 13 13 13 14 14 14 14 13 13 13 14 14 15 15 15 15 15
28 27 27 27 26 24 23 23 22 21 20 19 18 17 17 16 15 15 15 15 16 15 15 14 14 14 14 13 14 14 14 14 14 14 14 14 14 14 14 14 15 15 15 16
27 27 27 27 26 24 24 25 24 23 22 21 20 20 19 18 17 17 16 17 17 16 15 15 15 15 15 15 14 14 14 14 14 14 14 14 14 14 14 14 15 16 16 17
28 27 27 27 26 26 25 25 25 25 24 23 22 22 21 21 20 19 18 18 18 17 17 16 16 16 16 16 16 16 16 16 15 15 15 15 15 15 16 16 17 17 17 18
29 29 28 27 27 28 27 26 26 25 25 25 24 24 22 21 21 21 20 20 19 19 18 17 17 17 17 17 17 17 17 17 17 16 16 16 16 17 17 17 18 18 18 19
Wind_Direction
282 275 275 272 266 265 262 260 259 256 253 256 258 255 255 249 247 247 243 244 243 240 240 237 240 247 249 244 242 239 237 232 228 226 224 223 224 225 226 241 272 286 330 351
284 280 277 273 267 267 263 266 266 260 257 262 263 258 255 250 252 252 249 244 240 237 237 239 242 248 245 241 241 239 233 227 229 230 220 216 215 221 231 248 268 282 321 343
280 281 279 276 272 270 264 266 269 264 260 265 268 260 256 254 257 255 250 242 239 238 239 243 245 246 240 233 233 233 226 226 229 234 225 213 213 222 234 244 248 272 293 332
277 278 278 276 274 267 263 260 267 270 265 265 264 259 255 255 258 256 250 244 238 238 239 238 240 240 237 230 230 231 231 228 228 229 220 215 219 225 228 232 240 265 274 295
276 274 273 272 271 263 262 259 263 265 267 266 264 259 257 256 259 259 249 248 245 242 240 237 238 241 238 235 231 231 234 229 226 220 217 219 221 225 224 228 238 251 265 281
269 268 267 268 269 265 268 268 266 265 262 261 266 262 257 257 260 257 252 249 246 246 244 244 244 242 237 235 230 229 227 222 217 215 217 218 221 226 230 232 235 240 255 264
266 266 263 264 267 267 265 272 273 269 265 263 264 264 264 260 260 260 255 249 245 246 248 247 244 242 241 238 232 230 229 224 218 218 222 223 223 227 231 235 237 240 251 257
262 264 264 261 261 261 259 263 259 261 265 267 261 260 270 267 262 258 251 247 249 250 250 244 242 240 238 234 231 229 230 227 225 223 226 227 230 232 235 240 243 245 253 255
256 261 261 258 258 253 253 258 259 261 263 267 265 263 270 266 260 254 253 253 249 247 244 240 238 238 233 230 228 232 234 230 228 228 233 234 235 239 241 245 247 248 256 259
251 256 261 258 253 252 252 254 258 261 259 262 265 264 265 260 256 256 255 255 246 242 239 237 235 234 234 233 233 234 236 238 236 234 237 240 242 244 248 253 254 257 260 259
248 252 254 254 250 248 252 255 257 258 256 257 258 262 261 259 259 255 254 250 245 238 235 236 236 234 236 237 236 236 238 239 238 236 238 242 245 246 250 254 254 257 257 259
245 246 249 251 250 248 248 252 254 257 260 261 262 262 265 262 258 255 255 249 246 236 233 234 235 236 239 239 236 236 239 240 241 240 240 242 244 246 251 254 254 257 258 258
241 242 244 248 247 245 245 249 254 257 261 262 262 266 268 264 258 255 256 251 244 237 235 238 239 239 241 239 238 237 239 240 242 243 242 243 244 245 250 251 253 256 256 257
238 240 241 243 248 249 249 254 258 259 261 263 266 265 266 265 258 255 254 252 245 236 234 235 235 240 240 239 238 238 240 241 241 243 241 241 242 244 247 252 255 258 260 263
237 238 238 241 245 249 250 252 254 257 259 262 263 265 265 260 255 252 252 251 244 236 236 241 244 245 242 238 239 239 241 243 244 243 241 243 243 246 249 256 259 262 263 264
237 238 238 240 244 248 249 250 251 254 254 254 253 257 259 257 254 252 254 253 248 246 245 246 244 246 244 240 239 240 242 243 243 243 244 246 248 251 255 257 261 262 264 266
238 240 240 240 242 246 246 248 250 250 249 249 250 252 255 257 256 256 257 256 254 248 247 249 249 249 245 243 243 242 242 242 246 247 247 249 250 254 258 260 263 264 266 267
237 241 242 242 242 244 245 246 247 247 247 250 249 246 249 252 255 256 255 256 258 257 253 254 254 252 249 249 249 246 246 245 246 250 250 252 254 258 260 263 265 266 267 270
237 241 243 242 243 244 244 245 247 247 248 250 248 245 247 250 253 256 256 254 257 259 258 256 254 253 251 251 253 252 251 250 251 254 258 259 261 262 265 266 267 268 269 272
237 240 243 242 242 242 242 243 246 248 247 247 247 245 247 248 251 255 256 256 257 260 258 256 255 256 256 255 255 256 255 256 256 258 259 260 262 265 268 269 269 269 271 272
237 239 241 242 242 241 240 242 244 245 246 246 244 245 246 248 252 254 253 255 255 256 256 255 256 256 255 254 254 255 256 257 257 258 257 258 262 267 269 271 272 272 272 274
239 240 240 242 242 241 240 242 242 243 243 241 241 243 246 250 253 254 254 253 254 256 254 256 256 255 255 256 258 258 258 257 259 261 260 261 265 269 270 273 273 272 271 274
238 239 240 242 243 241 240 241 240 240 239 238 239 242 246 249 252 252 253 253 256 256 253 255 255 253 254 256 258 260 259 258 259 260 261 265 268 271 273 274 274 273 273 275
238 237 238 240 240 239 239 240 240 240 239 240 242 243 244 248 250 252 253 253 256 258 254 254 254 252 255 257 258 260 260 259 260 262 263 266 268 271 273 275 277 277 275 277
238 238 238 238 237 237 238 240 241 242 241 241 243 245 246 247 249 251 253 254 255 257 255 255 256 255 257 258 258 258 259 260 261 263 265 266 270 273 275 277 279 280 280 280
238 239 239 238 238 238 237 239 241 243 243 242 243 245 247 249 250 251 253 254 255 256 254 254 255 256 258 258 258 257 258 259 261 264 266 268 271 274 276 278 279 280 281 282
Height
5861 5862 5862 5861 5861 5861 5860 5861 5861 5861 5861 5861 5861 5862 5862 5862 5863 5863 5864 5864 5865 5866 5866 5867 5868 5869 5869 5870 5871 5871 5872 5873 5874 5874 5875 5876 5877 5877 5877 5877 5877 5876 5876 5875
5861 5861 5860 5860 5859 5859 5859 5859 5859 5859 5859 5860 5860 5860 5860 5861 5861 5862 5862 5862 5863 5864 5865 5866 5866 5867 5868 5868 5869 5870 5871 5872 5872 5873 5874 5875 5876 5876 5877 5876 5876 5876 5875 5875
5859 5860 5859 5858 5858 5857 5857 5858 5858 5858 5858 5858 5859 5859 5859 5860 5860 5860 5860 5861 5861 5862 5863 5864 5865 5866 5866 5867 5867 5869 5870 5871 5871 5872 5873 5874 5875 5875 5876 5876 5876 5876 5875 5874
5857 5858 5857 5857 5857 5856 5856 5856 5856 5856 5857 5857 5858 5858 5859 5858 5858 5858 5859 5859 5860 5861 5861 5862 5863 5864 5865 5865 5866 5867 5868 5869 5870 5871 5872 5873 5874 5874 5875 5875 5875 5875 5875 5874
5856 5856 5856 5856 5856 5855 5855 5855 5855 5855 5856 5856 5857 5857 5858 5857 5857 5857 5857 5857 5858 5859 5860 5860 5862 5862 5863 5864 5865 5866 5867 5868 5869 5870 5870 5872 5873 5873 5874 5874 5875 5875 5875 5874
5854 5854 5854 5854 5854 5854 5854 5854 5854 5854 5854 5855 5855 5856 5856 5855 5855 5855 5855 5856 5856 5857 5858 5859 5860 5861 5862 5863 5864 5865 5866 5867 5868 5868 5869 5870 5872 5872 5873 5874 5874 5874 5874 5874
5852 5852 5852 5852 5852 5852 5852 5853 5853 5853 5853 5854 5854 5854 5855 5853 5853 5854 5854 5854 5855 5855 5856 5857 5858 5859 5860 5861 5862 5863 5864 5865 5866 5867 5868 5869 5870 5871 5872 5872 5873 5873 5873 5873
5850 5850 5850 5850 5850 5851 5851 5851 5853 5853 5852 5852 5852 5852 5853 5852 5852 5851 5852 5852 5853 5853 5854 5855 5856 5857 5858 5859 5860 5862 5863 5864 5865 5866 5867 5868 5869 5870 5870 5871 5871 5872 5872 5872
5847 5848 5848 5848 5848 5849 5849 5849 5850 5850 5850 5851 5851 5851 5851 5850 5850 5850 5850 5850 5850 5851 5852 5852 5854 5855 5856 5857 5859 5860 5861 5863 5864 5865 5866 5867 5867 5868 5869 5870 5870 5870 5870 5870
5844 5845 5845 5845 5846 5846 5847 5847 5848 5848 5848 5849 5850 5849 5849 5848 5848 5848 5848 5848 5848 5849 5849 5850 5852 5853 5854 5856 5857 5858 5859 5861 5862 5863 5864 5865 5866 5867 5867 5868 5868 5868 5868 5868
5841 5842 5843 5843 5843 5844 5845 5846 5846 5846 5847 5848 5848 5850 5847 5847 5847 5846 5846 5846 5846 5847 5848 5849 5850 5851 5852 5853 5855 5856 5857 5859 5860 5861 5862 5863 5863 5864 5865 5866 5866 5866 5866 5866
5837 5839 5840 5840 5841 5841 5842 5843 5844 5845 5845 5845 5846 5849 5845 5845 5845 5844 5844 5844 5844 5845 5846 5847 5848 5849 5850 5851 5852 5854 5855 5856 5857 5858 5859 5860 5861 5862 5863 5863 5863 5864 5864 5864
5833 5835 5837 5837 5840 5839 5839 5840 5841 5841 5842 5842 5843 5846 5843 5843 5843 5842 5842 5842 5843 5843 5844 5845 5846 5847 5848 5849 5850 5851 5853 5854 5855 5856 5857 5857 5858 5859 5860 5860 5861 5861 5861 5861
5829 5831 5834 5835 5835 5835 5836 5837 5838 5839 5839 5840 5841 5841 5841 5840 5840 5841 5840 5840 5841 5841 5842 5843 5844 5845 5846 5847 5848 5849 5850 5851 5852 5853 5854 5855 5856 5856 5857 5858 5858 5858 5858 5859
5824 5827 5828 5830 5831 5832 5833 5834 5834 5835 5836 5838 5838 5838 5838 5838 5838 5839 5839 5839 5839 5840 5840 5841 5842 5843 5843 5844 5845 5846 5847 5848 5849 5850 5851 5852 5853 5853 5854 5855 5855 5855 5855 5855
5819 5822 5824 5825 5826 5827 5828 5830 5831 5832 5833 5834 5835 5836 5835 5836 5836 5836 5837 5837 5837 5838 5839 5839 5840 5840 5841 5842 5843 5844 5845 5846 5847 5848 5848 5849 5850 5850 5851 5851 5852 5852 5852 5852
5814 5817 5819 5821 5822 5823 5825 5827 5827 5829 5830 5831 5832 5833 5832 5833 5833 5834 5834 5835 5835 5836 5836 5837 5837 5838 5838 5839 5840 5841 5842 5843 5844 5844 5845 5846 5847 5847 5848 5848 5848 5848 5848 5848
5809 5811 5813 5815 5817 5818 5823 5822 5823 5824 5826 5827 5828 5829 5829 5830 5830 5831 5831 5832 5832 5833 5834 5834 5834 5835 5836 5837 5837 5838 5839 5840 5841 5841 5842 5842 5843 5843 5844 5844 5844 5844 5844 5844
5802 5805 5807 5809 5811 5813 5816 5817 5818 5820 5822 5823 5824 5825 5825 5826 5827 5828 5828 5829 5829 5830 5830 5831 5832 5832 5833 5834 5834 5835 5836 5837 5837 5838 5839 5839 5839 5840 5840 5840 5840 5840 5840 5840
5796 5798 5801 5803 5805 5807 5812 5812 5813 5816 5817 5818 5819 5820 5821 5822 5824 5825 5825 5825 5826 5826 5827 5828 5828 5829 5830 5830 5831 5832 5832 5833 5834 5834 5835 5835 5835 5836 5836 5836 5836 5836 5836 5835
5789 5791 5793 5796 5798 5801 5805 5806 5809 5812 5814 5814 5815 5816 5817 5818 5820 5821 5821 5821 5822 5822 5823 5824 5824 5825 5826 5827 5827 5828 5829 5830 5830 5830 5831 5831 5831 5832 5832 5832 5831 5831 5831 5831
5782 5784 5787 5789 5791 5797 5799 5800 5803 5806 5807 5809 5810 5811 5812 5814 5815 5816 5816 5817 5818 5818 5819 5820 5821 5821 5822 5823 5824 5824 5825 5825 5826 5826 5827 5827 5827 5827 5827 5827 5827 5827 5826 5826
5774 5778 5780 5784 5788 5790 5791 5793 5796 5798 5800 5802 5804 5806 5807 5809 5810 5811 5812 5813 5813 5814 5815 5816 5816 5817 5818 5819 5819 5820 5820 5821 5822 5822 5823 5823 5823 5823 5823 5823 5822 5822 5822 5821
5767 5770 5773 5776 5779 5782 5784 5786 5789 5791 5794 5796 5798 5800 5802 5803 5805 5806 5807 5808 5809 5810 5810 5811 5812 5813 5814 5814 5815 5816 5816 5817 5817 5818 5818 5819 5819 5819 5819 5818 5818 5817 5817 5816
5759 5762 5765 5768 5771 5774 5777 5779 5782 5784 5788 5790 5792 5794 5795 5797 5799 5800 5801 5803 5804 5805 5805 5806 5807 5808 5808 5809 5810 5811 5812 5812 5813 5813 5814 5814 5814 5814 5814 5814 5813 5812 5812 5811
5751 5754 5757 5760 5764 5767 5770 5772 5775 5777 5780 5783 5785 5787 5789 5791 5793 5794 5796 5797 5798 5799 5800 5801 5802 5803 5803 5804 5805 5806 5806 5807 5808 5808 5809 5809 5809 5809 5809 5808 5808 5807 5806 5805